Location: Unspecified
(42.2730°N, 83.7130°W)
Time: 13:40:56
(UTC+00:00)

CBERS-1 - Pass Details

Date: 14 December 2025
Orbit: 764 x 773 km, 98.8° (Epoch: 17 January)

Event Time Altitude Azimuth Distance (km) Brightness Sun altitude
Rises 22:28:07 0° 162° (SSE) 3,234 7.4 -4.9°
Reaches altitude 10° 22:30:24 10° 161° (SSE) 2,311 6.6 -5.2°
Maximum altitude 22:35:30 82° 74° (ENE) 785 4.0 -6.1°
Drops below altitude 10° 22:40:38 10° 348° (NNW) 2,323 6.4 -6.9°
Sets 22:42:57 0° 348° (NNW) 3,253 7.1 -7.3°
